Location: Newark
(44.9486°N, 4.8961°E)
Time: 07:51:10
(UTC+00:00)

ISS - Visible Passes

Search period start: 22 July 2019 00:00
Search period end: 01 August 2019 00:00
Orbit: 409 x 418 km, 51.6° (Epoch: 22 July)

Date Brightness Start Highest point End Pass type
(mag) Time Alt. Az. Time Alt. Az. Time Alt. Az.
22 Jul -1.7 20:59:30 10° WNW 21:02:29 28° N 21:05:26 10° NE visible
22 Jul -1.7 22:36:52 10° NW 22:39:48 27° N 22:41:13 20° NE visible
23 Jul -1.0 00:13:31 10° WNW 00:14:00 13° WNW 00:14:00 13° WNW visible
23 Jul -2.0 20:09:56 10° W 20:13:02 34° NNW 20:16:08 10° NE visible
23 Jul -1.5 21:47:29 10° NW 21:50:20 25° N 21:53:10 10° ENE visible
23 Jul -1.8 23:24:14 10° NW 23:25:59 27° NW 23:25:59 27° NW visible
24 Jul -1.5 20:58:00 10° WNW 21:00:50 25° N 21:03:41 10° ENE visible
24 Jul -2.4 22:34:58 10° NW 22:38:03 38° NNE 22:38:03 38° NNE visible
25 Jul -1.6 20:08:27 10° WNW 20:11:20 26° N 20:14:14 10° NE visible
25 Jul -2.0 21:45:39 10° NW 21:48:40 30° NNE 21:50:10 21° ENE visible
25 Jul -1.1 23:22:15 10° WNW 23:22:59 15° WNW 23:22:59 15° WNW visible
26 Jul -1.8 20:56:16 10° NW 20:59:10 26° N 21:02:04 10° ENE visible
26 Jul -2.4 22:32:56 10° WNW 22:35:08 38° NW 22:35:08 38° NW visible
27 Jul -1.7 20:06:49 10° NW 20:09:39 25° N 20:12:29 10° ENE visible
27 Jul -3.0 21:43:36 10° NW 21:46:52 47° NNE 21:47:20 43° NE visible
28 Jul -2.4 20:54:17 10° NW 20:57:25 35° NNE 20:59:32 17° ENE visible
28 Jul -1.7 22:30:56 10° WNW 22:32:21 22° WNW 22:32:21 22° WNW visible
29 Jul -2.1 20:04:54 10° NW 20:07:54 29° NNE 20:10:53 10° ENE visible
29 Jul -3.7 21:41:31 10° WNW 21:44:35 73° WNW 21:44:35 73° WNW visible
30 Jul -3.5 20:52:09 10° NW 20:55:29 62° NNE 20:56:51 31° E visible
30 Jul -0.9 22:29:17 10° W 22:29:40 12° W 22:29:40 12° W visible
31 Jul -2.9 20:02:47 10° NW 20:06:01 43° NNE 20:09:09 10° E visible
31 Jul -2.5 21:39:34 10° WNW 21:41:58 31° WSW 21:41:58 31° WSW visible
